www.pogodaiklimat.ru

Погода и климат >> Архив погоды >> Италия >> Капо Фраска


ПОГОДА на Капо Фраска

  • Прогноз погоды на Капо Фраска
  • Монитор погоды на Капо Фраска

АРХИВ ПОГОДЫ на Капо Фраска

Время (UTC), дата Ветер
(напр.,м/с)
 
Видим.   Явления Облачность Т
(С)
Тd
(С)
f
(%)
Тe
(С)
Тes
(С)
Комфортность P
(гПа)
Po
(гПа)
Тmin
(С)
Tmax
(С)
R
(мм)
R24
(мм)
S
(см)
06 17.07 ЮВ 2 10 км 4/1 240 м
[St Ci fib]
+19.6 +18.4 93 +23 +25 комфорт 1014.2 1003.0 +18.6
09 17.07 С 3 20 км 6/0 2000 м
[Ac trans Ci fib]
+24.4 +21.9 86 +31 +42 очень
душно
1014.6 1003.6
12 17.07 СЗ 5 20 км 8/1 900 м
[Cu hum Ac trans Ci fib]
+26.4 +19.8 67 +32 +38 очень
душно
1014.3 1003.4
15 17.07 СЗ 6 20 км 6/1 900 м
[Cu hum Ac As Ci fib]
+26.8 +24.7 88 +38 +40 очень
душно
1013.8 1002.9
18 17.07 С 4 20 км 5/0 2000 м
[Ac As Ci sp]
+24.2 +23.9 98 +33 +33 очень
душно
1013.0 1002.0 +27.8
06 18.07 штиль 0 10 км 5/1 300 м
[St Ac As Ci fib]
+21.6 +20.4 93 +27 +29 душно 1012.7 1001.6 +19.6
09 18.07 СЗ 2 20 км 3/1 540 м
[Cu med, cong Ac trans Ci fib]
+25.2 +24.0 93 +35 +46 очень
душно
1013.1 1002.2
12 18.07 З 4 20 км 8/1 600 м
[Cu med, cong Ci fib]
+25.0 +24.3 96 +35 +45 очень
душно
1013.4 1002.4
15 18.07 З 5 20 км 3/1 600 м
[Cu med, cong Ci fib]
+26.8 +26.1 96 +40 +44 очень
душно
1013.2 1002.3
18 18.07 СЗ 4 20 км 8/3 450 м
[Cu med, cong Ci fib]
+25.2 +24.9 98 +36 +36 очень
душно
1013.2 1002.3 +28.0
06 19.07 С 3 10 км 5/5 240 м
[Cu hum]
+22.2 +21.0 93 +29 +30 очень
душно
1015.9 1004.8 +21.0
09 19.07 С 4 20 км ясно +25.8 +24.0 90 +36 +45 очень
душно
1016.2 1005.3
12 19.07 СЗ 5 20 км 1/1 600 м
[Cu hum]
+27.0 +24.8 88 +39 +47 очень
душно
1016.5 1005.6
15 19.07 СЗ 5 20 км 1/1 600 м
[Cu hum]
+26.8 +24.1 85 +37 +41 очень
душно
1016.0 1005.1
18 19.07 С 3 20 км ясно +25.2 +24.5 96 +35 +36 очень
душно
1016.0 1005.0 +27.8
06 20.07 ЮВ 7 10 км ясно +23.4 +22.2 93 +32 +33 очень
душно
1016.5 1005.5 +20.4
09 20.07 ЮВ 6 20 км ясно +29.2 +24.8 77 +42 +47 опасность
перегрева
1016.6 1005.8
12 20.07 ЮВ 3 20 км 1/0 750 м
[]
+34.4 +17.6 37 +38 +53 опасность
солнечного
удара
1016.6 1006.0
15 20.07 С 5 20 км 1/1 750 м
[Cu hum]
+27.8 +26.7 94 +43 +48 опасность
перегрева
1017.3 1006.4
18 20.07 С 5 20 км ясно +27.0 +23.9 83 +37 +37 очень
душно
1017.7 1006.8 +34.4
06 21.07 ЮВ 5 20 км ясно +23.4 +22.4 94 +32 +33 очень
душно
1019.9 1008.8 +21.6
09 21.07 Ю 5 20 км ясно +30.0 +18.4 50 +35 +43 очень
душно
1019.7 1008.9
12 21.07 СЗ 4 20 км ясно +30.6 +23.5 66 +41 +56 опасность
перегрева
1019.9 1009.1
15 21.07 З 4 20 км 1/0 750 м
[]
+28.2 +25.6 86 +42 +48 опасность
перегрева
1020.4 1009.5
18 21.07 З 4 20 км ясно +26.2 +25.2 94 +38 +38 очень
душно
1020.6 1009.6 +34.0
06 22.07 Ю 1 20 км ясно +22.4 +21.4 94 +29 +32 очень
душно
1021.6 1010.5 +20.0
09 22.07 СЗ 2 20 км ясно +28.0 +22.0 70 +36 +52 опасность
солнечного
удара
1021.9 1011.0
12 22.07 З 4 20 км ясно +27.0 +27.0 100 +42 +55 опасность
перегрева
1022.1 1011.2
15 22.07 З 4 20 км ясно +27.6 +25.8 90 +41 +48 опасность
перегрева
1021.6 1010.7
18 22.07 СЗ 3 20 км ясно +27.0 +26.3 96 +41 +41 опасность
перегрева
1020.9 1010.0 +27.6
06 23.07 В 2 20 км ясно +22.8 +21.6 93 +30 +33 очень
душно
1019.1 1008.0 +20.4
09 23.07 ЮЗ 4 20 км ясно +27.0 +23.9 83 +37 +46 очень
душно
1018.9 1008.0
12 23.07 СЗ 5 20 км ясно +27.4 +25.0 87 +39 +51 опасность
солнечного
удара
1018.9 1008.0
15 23.07 С 5 20 км ясно +28.0 +28.0 100 +46 +52 опасность
перегрева
1018.5 1007.6
18 23.07 С 3 20 км ясно +26.6 +26.4 99 +40 +41 очень
душно
1017.9 1007.0 +29.2

 

Местоположение метеостанции Капо Фраска (Италия): широта 39.75 долгота 8.47 высота над уровнем моря 89 м.

В архиве по умолчанию представлена погода на Капо Фраска за последнюю неделю. Архивные данные за месяц целиком и за предыдущие месяцы, начиная с января 2011 года, Вы можете получить, выбрав интересующий диапазон дат из раскрывающегося списка и нажав кнопку "Ввод!".


*Определитесь, кто Вы:
робот инопланетянин человек

Внимание! Время в таблицах - всемирное. Для получения местного времени необходимо прибавить поправку, которая равна 1 ч.

Смотрите также архив погоды в соседних городах и на ближайших метеорологических станциях:

Погода в Дечимоманну (Италия) (62 км)
Погода на Капо Кацция (Италия) (95 км)
Погода в Альгеро (Италия) (99 км)
Погода на Капо Беллависто (Италия) (109 км)
Погода на Капо Карбонара (Италия) (116 км)
Погода в Ольвии (Италия) (156 км)
Погода на Мысе Пертюзато (Франция) (190 км)
Погода в Фигари (Франция) (202 км)
Погода в Ла Парате (Франция) (242 км)
Погода в Аяччо (Франция) (243 км)

Пояснения к столбцам:

Ветер - указаны скорость ветра в м/с - средняя за 10 мин, порывы в срок и между сроками (в фигурных скобках) и направление, откуда дует ветер: С - северный, СВ - северо-восточный, В - восточный, ЮВ - юго-восточный, Ю - южный, ЮЗ - юго-западный, З - западный, СЗ - северо-западный.
Видимость - горизонтальная дальность видимости в метрах или километрах. При видимости от 1 до 10 км при отсутствии осадков обычно наблюдается дымка, при ухудшении видимости до 1 км и менее - туман. В сухую погоду видимость может ухудшаться дымом, пылью или мглою.
Явления - указаны атмосферные явления, наблюдавшиеся в срок или в последний час перед сроком; фигурными скобками обозначены явления, наблюдавшиеся между сроками (за 1-3 часа до срока); квадратными скобками обозначены град или гололедные отложения с указанием их диаметра в мм.
Облачность - указаны через наклонную черту общая и нижняя облачность в баллах и высота нижней границы облаков в метрах; квадратными скобками обозначены формы облаков: Ci - перистые, Cs - перисто-слоистые, Cc - перисто-кучевые, Ac - высококучевые, As - высокослоистые, Sc - слоисто-кучевые, Ns - слоисто-дождевые, Cu - кучевые, Cb - кучево-дождевые. Подробнее классификацию облаков см. в Атласе облаков (PDF).
T - Температура воздуха - температура, измеренная на высоте 2 м над землей.
Td - Температура точки росы - температура, при понижении до которой содержащийся в воздухе водяной пар достигнет насыщения.
f - Относительная влажность воздуха - влажноcть воздуха, измеренная на высоте 2 м над землей.
Te - Эффективная температура - температура, которую ощущает одетый по сезону человек в тени. Характеристика душности погоды. При расчете учитывается влияние влажности воздуха и скорости ветра на теплоощущения человека.
Tes - Эффективная температура на солнце - температура, которую ощущает человек, с поправкой на солнечный нагрев. Характеристика знойности погоды. Зависит от высоты солнца над горизонтом, облачности и скорости ветра. Ночью, в пасмурную погоду, а также при ветре 12 м/с и более поправка равна нулю.
P - Атмосферное давление - приведенное к уровню моря атмосферное давление.
Po - Атмосферное давление - измеренное на уровне метеостанции атмосферное давление.
Tmin - Минимальная температура - минимум температуры воздуха на высоте 2 м над землей.
Tmax - Максимальная температура - максимум температуры воздуха на высоте 2 м над землей.
R - Количество осадков - Количество выпавших осадков за период времени, мм. При наведении курсора мыши на число - период времени, за который выпало указанное количество осадков.
R24 - Количество осадков - Количество выпавших осадков за 24 часа, мм.
S - Снежный покров - Высота снежного покрова, см. При наведении курсора мыши на число - состояние снежного покрова и степень покрытия местности в баллах.